Monett, MO

9:48 PM CDT on September 18, 2019 (GMT -0500)
Monett

Weather History for KHFJ - August, 2019

Change the Weather History Date:

Sunday, August 25, 2019

  Actual Average (WUND) Record (WUND)
Temperature  
Mean Temperature 72 °F -  
Max Temperature 78 °F - - (-1)
Min Temperature 66 °F - - (-1)
Cooling Degree Days 7    
Growing Degree Days 22 (Base 50)    
Moisture  
Dew Point 70 °F    
Average Humidity 95    
Maximum Humidity 100    
Minimum Humidity 78    
Precipitation  
Precipitation 0.21 in - - ()
Sea Level Pressure  
Sea Level Pressure 29.90 in    
Wind  
Wind Speed 7 mph ()    
Max Wind Speed 13 mph    
Max Gust Speed 17 mph    
Visibility 9.1 miles    
Events Rain , Thunderstorm    
Averages and records for this station are not official NWS values.
T = Trace of Precipitation, MM = Missing Value Source: Averaged Metar Reports

Daily Weather History Graph

Daily Weather History Graph

Search for Another Location

Airport or City:

Astronomy

Aug. 25, 2019 Rise Set
Actual Time 6:41 AM CDT 7:54 PM CDT
Civil Twilight 6:14 AM CDT 8:21 PM CDT
Nautical Twilight 5:42 AM CDT 8:53 PM CDT
Astronomical Twilight 5:08 AM CDT 9:26 PM CDT
Moon 1:20 AM CDT (8/25) 4:11 PM CDT (8/25)
Length of Visible Light 14h 07m
Length of Day
13h 13m
Waning Crescent, 29% of the Moon is Illuminated
Aug 25
Waning Crescent
Aug 30
New
Sep 5
First Quarter
Sep 13
Full
Sep 21
Last Quarter

Hourly Weather History & Observations

Time (CDT) Temp. Dew Point Humidity Pressure Visibility Wind Dir Wind Speed Gust Speed Precip Events Conditions
12:15 AM 66.2 °F 66.2 °F 100% 30.01 in 4.0 mi ESE 9.2 mph 17.3 mph N/A   Overcast
12:35 AM 66.2 °F 66.2 °F 100% 30.01 in 4.0 mi ESE 12.7 mph 17.3 mph N/A   Overcast
12:55 AM 66.2 °F 66.2 °F 100% 30.01 in 4.0 mi ESE 9.2 mph 16.1 mph N/A   Overcast
1:15 AM 66.2 °F 66.2 °F 100% 30.01 in 4.0 mi SE 9.2 mph - N/A   Overcast
1:35 AM 66.2 °F 66.2 °F 100% 30.00 in 4.0 mi SE 11.5 mph - N/A   Overcast
1:55 AM 66.2 °F 66.2 °F 100% 30.00 in 4.0 mi SE 10.4 mph 17.3 mph N/A   Overcast
2:15 AM 68.0 °F 68.0 °F 100% 29.99 in 5.0 mi SE 10.4 mph - N/A   Overcast
2:35 AM 68.0 °F 68.0 °F 100% 29.97 in 7.0 mi SE 10.4 mph 17.3 mph N/A   Overcast
3:15 AM 68.0 °F 68.0 °F 100% 29.96 in 10.0 mi SE 9.2 mph - N/A   Overcast
3:35 AM 68.0 °F 68.0 °F 100% 29.97 in 10.0 mi SSE 8.1 mph - N/A   Overcast
3:55 AM 68.0 °F 68.0 °F 100% 29.96 in 10.0 mi SSE 8.1 mph - N/A   Overcast
4:15 AM 68.0 °F 68.0 °F 100% 29.96 in 10.0 mi SSE 8.1 mph - N/A   Overcast
4:35 AM 68.0 °F 68.0 °F 100% 29.97 in 10.0 mi SE 4.6 mph - N/A   Overcast
5:35 AM 68.0 °F 68.0 °F 100% 29.95 in 5.0 mi SE 9.2 mph - N/A   Overcast
5:55 AM 68.0 °F 68.0 °F 100% 29.95 in 5.0 mi SE 8.1 mph - N/A   Overcast
6:35 AM 68.0 °F 68.0 °F 100% 29.95 in 7.0 mi SE 8.1 mph - N/A   Overcast
6:55 AM 68.0 °F 68.0 °F 100% 29.95 in 10.0 mi SSE 8.1 mph - N/A   Overcast
7:15 AM 68.0 °F 68.0 °F 100% 29.95 in 10.0 mi SE 6.9 mph - N/A   Overcast
7:55 AM 69.8 °F 69.8 °F 100% 29.94 in 10.0 mi SSE 6.9 mph - N/A   Overcast
8:15 AM 69.8 °F 69.8 °F 100% 29.94 in 10.0 mi SSE 6.9 mph - N/A   Overcast
8:35 AM 69.8 °F 69.8 °F 100% 29.93 in 10.0 mi SSE 6.9 mph - N/A   Overcast
8:55 AM 71.6 °F 71.6 °F 100% 29.93 in 10.0 mi SSE 9.2 mph - N/A   Overcast
9:15 AM 71.6 °F 71.6 °F 100% 29.94 in 10.0 mi SSE 9.2 mph - N/A   Overcast
9:35 AM 71.6 °F 71.6 °F 100% 29.94 in 10.0 mi SSE 8.1 mph - N/A   Overcast
9:55 AM 73.4 °F 71.6 °F 94% 29.94 in 10.0 mi South 10.4 mph - N/A   Overcast
10:15 AM 73.4 °F 71.6 °F 94% 29.93 in 10.0 mi SSE 10.4 mph - N/A   Overcast
10:35 AM 73.4 °F 71.6 °F 94% 29.93 in 10.0 mi SSE 8.1 mph - N/A   Overcast
10:55 AM 73.4 °F 71.6 °F 94% 29.93 in 10.0 mi South 8.1 mph - N/A   Overcast
11:35 AM 77.0 °F 71.6 °F 83% 29.93 in 10.0 mi South 8.1 mph 17.3 mph N/A   Overcast
11:55 AM 75.2 °F 71.6 °F 89% 29.93 in 10.0 mi West 11.5 mph 17.3 mph N/A   Overcast
12:15 PM 69.8 °F 68.0 °F 94% 29.93 in 10.0 mi West 6.9 mph - N/A   Overcast
12:55 PM 68.0 °F 68.0 °F 100% 29.91 in 10.0 mi Calm Calm - 0.16 in Rain Light Rain
1:15 PM 68.0 °F 68.0 °F 100% 29.89 in 10.0 mi South 5.8 mph - 0.01 in Rain , Thunderstorm Light Thunderstorms and Rain
1:35 PM 68.0 °F 68.0 °F 100% 29.88 in 10.0 mi SSE 3.5 mph - 0.05 in Rain Light Rain
1:55 PM 69.8 °F 69.8 °F 100% 29.89 in 10.0 mi SSE 8.1 mph - 0.05 in Thunderstorm Unknown
2:15 PM 69.8 °F 69.8 °F 100% 29.88 in 10.0 mi SSE 6.9 mph - N/A Rain , Thunderstorm Light Thunderstorms and Rain
2:35 PM 69.8 °F 69.8 °F 100% 29.88 in 10.0 mi South 4.6 mph - N/A   Mostly Cloudy
2:55 PM 71.6 °F 69.8 °F 94% 29.87 in 10.0 mi South 3.5 mph - N/A Thunderstorm Scattered Clouds
3:35 PM 73.4 °F 71.6 °F 94% 29.86 in 10.0 mi South 3.5 mph - N/A   Clear
3:55 PM 75.2 °F 71.6 °F 89% 29.86 in 10.0 mi South 5.8 mph - N/A   Scattered Clouds
4:15 PM 77.0 °F 71.6 °F 83% 29.84 in 10.0 mi SSW 6.9 mph - N/A Thunderstorm Scattered Clouds
4:35 PM 77.0 °F 71.6 °F 83% 29.84 in 10.0 mi SW 5.8 mph - N/A   Scattered Clouds
4:55 PM 77.0 °F 71.6 °F 83% 29.83 in 10.0 mi SSW 4.6 mph - N/A   Scattered Clouds
5:15 PM 77.0 °F 69.8 °F 78% 29.83 in 10.0 mi SW 4.6 mph - N/A   Clear
5:35 PM 78.8 °F 71.6 °F 78% 29.83 in 10.0 mi SW 4.6 mph - N/A   Clear
5:55 PM 78.8 °F 71.6 °F 78% 29.83 in 10.0 mi South 5.8 mph - N/A   Mostly Cloudy
6:15 PM 77.0 °F 71.6 °F 83% 29.83 in 10.0 mi South 3.5 mph - N/A   Overcast
6:35 PM 77.0 °F 71.6 °F 83% 29.83 in 10.0 mi South 3.5 mph - N/A   Overcast
6:55 PM 77.0 °F 71.6 °F 83% 29.83 in 10.0 mi South 4.6 mph - N/A   Overcast
7:15 PM 77.0 °F 71.6 °F 83% 29.83 in 10.0 mi Calm Calm - N/A   Overcast
7:35 PM 77.0 °F 71.6 °F 83% 29.83 in 10.0 mi Calm Calm - N/A   Overcast
7:55 PM 75.2 °F 71.6 °F 89% 29.84 in 10.0 mi SSE 3.5 mph - N/A   Overcast
8:15 PM 73.4 °F 71.6 °F 94% 29.84 in 10.0 mi Calm Calm - N/A   Overcast
8:35 PM 73.4 °F 71.6 °F 94% 29.85 in 10.0 mi Calm Calm - N/A   Mostly Cloudy
8:55 PM 73.4 °F 71.6 °F 94% 29.85 in 10.0 mi ESE 4.6 mph - N/A   Mostly Cloudy
9:15 PM 73.4 °F 71.6 °F 94% 29.86 in 10.0 mi East 4.6 mph - N/A   Scattered Clouds
9:35 PM 71.6 °F 71.6 °F 100% 29.86 in 10.0 mi ESE 3.5 mph - N/A   Scattered Clouds
9:55 PM 71.6 °F 71.6 °F 100% 29.86 in 10.0 mi ESE 4.6 mph - N/A   Mostly Cloudy
10:15 PM 71.6 °F 71.6 °F 100% 29.86 in 10.0 mi ESE 4.6 mph - N/A   Scattered Clouds
10:35 PM 71.6 °F 71.6 °F 100% 29.86 in 10.0 mi ESE 3.5 mph - N/A   Scattered Clouds
10:55 PM 69.8 °F 69.8 °F 100% 29.86 in 10.0 mi SE 3.5 mph - N/A   Clear
11:15 PM 69.8 °F 69.8 °F 100% 29.86 in 10.0 mi SE 3.5 mph - N/A   Clear
11:35 PM 69.8 °F 69.8 °F 100% 29.85 in 10.0 mi SE 4.6 mph - N/A   Clear
11:55 PM 69.8 °F 69.8 °F 100% 29.84 in 10.0 mi SE 4.6 mph - N/A   Clear